When you browse on this site, cookies collect data to enhance your experience and personalize the content and advertising you see.
Visit our Privacy Policy to learn more. By continuing to use the site, you agree to this use of cookies and data.
  • In United Kingdom
  • List of Countries
  • For 7 days
  • Water Temperature
  • Weather Map
  • Weather Widgets
  • user-avatar
    Login

    Hourly Weather Wavre

    Today, 22 October, Tuesday

    Time Temperature Precipitation Wind Pressure Humidity
    00:00 +10°C° 0 mm 4 mps 760 mmHg 96%
    01:00 +11°C° 0 mm 4 mps 760 mmHg 94%
    02:00 +11°C° 0 mm 3 mps 760 mmHg 93%
    03:00 +11°C° 0 mm 3 mps 760 mmHg 92%
    04:00 +10°C° 0 mm 3 mps 760 mmHg 93%
    05:00 +10°C° 0 mm 3 mps 761 mmHg 94%
    06:00 +10°C° 0 mm 3 mps 761 mmHg 96%
    07:00 +10°C° 0 mm 3 mps 761 mmHg 94%
    08:00 +11°C° 0 mm 3 mps 762 mmHg 91%
    09:00 +12°C° 0 mm 3 mps 762 mmHg 89%
    10:00 +13°C° 0 mm 3 mps 762 mmHg 86%
    11:00 +14°C° 0 mm 2 mps 762 mmHg 82%
    12:00 +15°C° 0 mm 2 mps 762 mmHg 79%
    13:00 +15°C° 0 mm 2 mps 762 mmHg 78%
    14:00 +15°C° 0 mm 1 mps 761 mmHg 77%
    15:00 +15°C° 0 mm 1 mps 761 mmHg 75%
    16:00 +14°C° 0 mm 1 mps 761 mmHg 79%
    17:00 +13°C° 0 mm 1 mps 761 mmHg 83%
    18:00 +12°C° 0 mm 1 mps 761 mmHg 87%
    19:00 +12°C° 0 mm 1 mps 761 mmHg 86%
    20:00 +12°C° 0 mm 1 mps 761 mmHg 86%
    21:00 +12°C° 0 mm 1 mps 761 mmHg 86%
    22:00 +12°C° 0 mm 1 mps 760 mmHg 87%
    23:00 +12°C° 0 mm 2 mps 760 mmHg 88%

    Tomorrow, 23 October, Wednesday

    Time Temperature Precipitation Wind Pressure Humidity
    00:00 +10°C° 0 mm 2 mps 760 mmHg 90%
    01:00 +12°C° 0 mm 2 mps 759 mmHg 89%
    02:00 +11°C° 0 mm 3 mps 759 mmHg 88%
    03:00 +11°C° 0 mm 3 mps 758 mmHg 88%
    04:00 +11°C° 0 mm 3 mps 758 mmHg 86%
    05:00 +11°C° 0 mm 3 mps 757 mmHg 85%
    06:00 +11°C° 0 mm 3 mps 757 mmHg 83%
    07:00 +12°C° 0 mm 3 mps 757 mmHg 81%
    08:00 +12°C° 0 mm 3 mps 756 mmHg 78%
    09:00 +13°C° 0 mm 3 mps 756 mmHg 76%
    10:00 +16°C° 0 mm 3 mps 755 mmHg 74%
    11:00 +17°C° 0 mm 3 mps 755 mmHg 72%
    12:00 +18°C° 0 mm 3 mps 754 mmHg 69%
    13:00 +18°C° 0 mm 3 mps 754 mmHg 71%
    14:00 +19°C° 0 mm 3 mps 753 mmHg 73%
    15:00 +19°C° 0 mm 3 mps 752 mmHg 75%
    16:00 +18°C° 0 mm 3 mps 752 mmHg 80%
    17:00 +17°C° 0 mm 2 mps 752 mmHg 85%
    18:00 +16°C° 0 mm 2 mps 751 mmHg 90%
    19:00 +16°C° 0 mm 2 mps 751 mmHg 90%
    20:00 +14°C° 0 mm 3 mps 751 mmHg 89%
    21:00 +14°C° 0 mm 3 mps 751 mmHg 89%
    22:00 +15°C° 0 mm 2 mps 751 mmHg 90%
    23:00 +15°C° 0 mm 2 mps 750 mmHg 91%

    Day after tomorrow, 24 October, Thursday

    Time Temperature Precipitation Wind Pressure Humidity
    00:00 +14°C° 0 mm 2 mps 750 mmHg 92%
    01:00 +14°C° 0 mm 2 mps 750 mmHg 91%
    02:00 +14°C° 0 mm 2 mps 749 mmHg 91%
    03:00 +13°C° 0 mm 3 mps 749 mmHg 91%
    04:00 +13°C° 0 mm 3 mps 749 mmHg 89%
    05:00 +13°C° 0 mm 3 mps 749 mmHg 88%
    06:00 +14°C° 0 mm 3 mps 749 mmHg 87%
    07:00 +14°C° 0 mm 3 mps 749 mmHg 85%
    08:00 +16°C° 0 mm 3 mps 749 mmHg 83%
    09:00 +17°C° 0 mm 4 mps 749 mmHg 80%
    10:00 +17°C° 0 mm 4 mps 749 mmHg 79%
    11:00 +17°C° 0 mm 4 mps 749 mmHg 78%
    12:00 +16°C° 0 mm 5 mps 749 mmHg 76%
    13:00 +16°C° 0 mm 5 mps 749 mmHg 73%
    14:00 +17°C° 0 mm 6 mps 748 mmHg 69%
    15:00 +17°C° 0 mm 7 mps 748 mmHg 65%
    16:00 +17°C° 0 mm 6 mps 748 mmHg 67%
    17:00 +16°C° 0 mm 6 mps 749 mmHg 68%
    18:00 +15°C° 0 mm 6 mps 749 mmHg 69%
    19:00 +14°C° 0 mm 6 mps 750 mmHg 73%
    20:00 +14°C° 0 mm 7 mps 750 mmHg 76%
    21:00 +12°C° 0 mm 7 mps 751 mmHg 80%
    22:00 +12°C° 0.1 mm 7 mps 752 mmHg 81%
    23:00 +12°C° 0.1 mm 7 mps 753 mmHg 82%

    25 October, Friday

    Time Temperature Precipitation Wind Pressure Humidity
    00:00 +11°C° 0.1 mm 6 mps 754 mmHg 83%
    01:00 +11°C° 0 mm 6 mps 755 mmHg 85%
    02:00 +10°C° 0 mm 6 mps 755 mmHg 87%
    03:00 +10°C° 0 mm 5 mps 756 mmHg 88%
    04:00 +9°C° 0 mm 5 mps 757 mmHg 90%
    05:00 +9°C° 0 mm 5 mps 757 mmHg 91%
    06:00 +8°C° 0 mm 4 mps 758 mmHg 92%
    07:00 +10°C° 0 mm 4 mps 758 mmHg 89%
    08:00 +11°C° 0 mm 4 mps 759 mmHg 86%
    09:00 +11°C° 0 mm 4 mps 759 mmHg 83%
    10:00 +12°C° 0 mm 5 mps 759 mmHg 78%
    11:00 +13°C° 0 mm 5 mps 759 mmHg 72%
    12:00 +14°C° 0 mm 6 mps 758 mmHg 67%
    13:00 +14°C° 0 mm 6 mps 758 mmHg 68%
    14:00 +14°C° 0 mm 6 mps 757 mmHg 69%
    15:00 +14°C° 0 mm 6 mps 756 mmHg 70%
    16:00 +14°C° 0 mm 7 mps 756 mmHg 71%
    17:00 +12°C° 0 mm 8 mps 755 mmHg 73%
    18:00 +12°C° 0 mm 8 mps 755 mmHg 74%
    19:00 +12°C° 0 mm 9 mps 754 mmHg 75%
    20:00 +13°C° 0 mm 10 mps 754 mmHg 75%
    21:00 +13°C° 0 mm 10 mps 753 mmHg 76%
    22:00 +13°C° 0 mm 11 mps 752 mmHg 74%
    23:00 +14°C° 0 mm 11 mps 752 mmHg 73%

    26 October, Saturday

    Time Temperature Precipitation Wind Pressure Humidity
    00:00 +14°C° 0 mm 12 mps 751 mmHg 72%
    01:00 +14°C° 0.2 mm 11 mps 751 mmHg 75%
    02:00 +14°C° 0.2 mm 10 mps 752 mmHg 79%
    03:00 +13°C° 0.2 mm 8 mps 752 mmHg 82%
    04:00 +12°C° 0.3 mm 7 mps 753 mmHg 83%
    05:00 +10°C° 0.3 mm 5 mps 753 mmHg 85%
    06:00 +8°C° 0.3 mm 4 mps 754 mmHg 86%
    07:00 +8°C° 0.1 mm 4 mps 755 mmHg 85%
    08:00 +9°C° 0.1 mm 3 mps 755 mmHg 84%
    09:00 +8°C° 0.1 mm 3 mps 756 mmHg 83%
    10:00 +9°C° 0.1 mm 3 mps 756 mmHg 80%
    11:00 +8°C° 0.1 mm 4 mps 756 mmHg 78%
    12:00 +8°C° 0.1 mm 4 mps 757 mmHg 75%
    13:00 +8°C° 0 mm 4 mps 757 mmHg 72%
    14:00 +8°C° 0 mm 4 mps 757 mmHg 70%
    15:00 +8°C° 0 mm 4 mps 757 mmHg 68%
    16:00 +8°C° 0 mm 3 mps 758 mmHg 67%
    17:00 +7°C° 0 mm 3 mps 758 mmHg 67%
    18:00 +5°C° 0 mm 3 mps 759 mmHg 67%
    19:00 +5°C° 0 mm 3 mps 759 mmHg 69%
    20:00 +4°C° 0 mm 3 mps 760 mmHg 72%
    21:00 +4°C° 0 mm 3 mps 760 mmHg 74%
    22:00 +4°C° 0 mm 4 mps 760 mmHg 76%
    23:00 +4°C° 0 mm 4 mps 760 mmHg 77%

    27 October, Sunday

    Time Temperature Precipitation Wind Pressure Humidity
    00:00 +4°C° 0 mm 4 mps 761 mmHg 79%
    01:00 +4°C° 0 mm 4 mps 761 mmHg 80%
    02:00 +3°C° 0 mm 3 mps 761 mmHg 80%
    03:00 +3°C° 0 mm 3 mps 761 mmHg 81%
    04:00 +3°C° 0 mm 3 mps 762 mmHg 80%
    05:00 +3°C° 0 mm 3 mps 762 mmHg 80%
    06:00 +3°C° 0 mm 3 mps 762 mmHg 79%
    07:00 +4°C° 0 mm 3 mps 762 mmHg 76%
    08:00 +5°C° 0 mm 3 mps 762 mmHg 73%
    09:00 +7°C° 0 mm 3 mps 763 mmHg 70%
    10:00 +8°C° 0 mm 3 mps 763 mmHg 66%
    11:00 +9°C° 0 mm 2 mps 763 mmHg 63%
    12:00 +10°C° 0 mm 2 mps 762 mmHg 60%
    13:00 +11°C° 0 mm 1 mps 762 mmHg 60%
    14:00 +11°C° 0 mm 1 mps 762 mmHg 61%
    15:00 +11°C° 0 mm 1 mps 762 mmHg 61%
    16:00 +9°C° 0 mm 0 mps 761 mmHg 65%
    17:00 +8°C° 0 mm 0 mps 761 mmHg 69%
    18:00 +6°C° 0 mm 0 mps 761 mmHg 72%
    19:00 +7°C° 0 mm 1 mps 761 mmHg 73%
    20:00 +7°C° 0 mm 1 mps 761 mmHg 73%
    21:00 +7°C° 0 mm 1 mps 761 mmHg 74%
    22:00 +7°C° 0 mm 1 mps 761 mmHg 75%
    23:00 +7°C° 0 mm 1 mps 761 mmHg 76%

    28 October, Monday

    Time Temperature Precipitation Wind Pressure Humidity
    00:00 +6°C° 0 mm 1 mps 760 mmHg 77%
    01:00 +7°C° 0 mm 1 mps 760 mmHg 76%
    02:00 +7°C° 0 mm 1 mps 760 mmHg 74%
    03:00 +7°C° 0 mm 1 mps 759 mmHg 73%
    04:00 +7°C° 0 mm 1 mps 759 mmHg 72%
    05:00 +8°C° 0 mm 1 mps 759 mmHg 72%
    06:00 +8°C° 0 mm 1 mps 759 mmHg 71%
    07:00 +8°C° 0 mm 1 mps 759 mmHg 70%
    08:00 +7°C° 0 mm 2 mps 759 mmHg 69%
    09:00 +8°C° 0 mm 2 mps 759 mmHg 67%
    10:00 +8°C° 0 mm 2 mps 759 mmHg 67%
    11:00 +9°C° 0 mm 2 mps 758 mmHg 66%
    12:00 +9°C° 0 mm 2 mps 758 mmHg 65%
    13:00 +9°C° 0 mm 2 mps 758 mmHg 65%
    14:00 +9°C° 0 mm 3 mps 758 mmHg 65%
    15:00 +10°C° 0 mm 3 mps 757 mmHg 66%
    16:00 +9°C° 0 mm 3 mps 757 mmHg 68%
    17:00 +8°C° 0 mm 3 mps 757 mmHg 70%
    18:00 +8°C° 0 mm 3 mps 757 mmHg 72%
    19:00 +7°C° 0 mm 3 mps 757 mmHg 73%
    20:00 +7°C° 0 mm 3 mps 757 mmHg 74%
    21:00 +7°C° 0 mm 3 mps 758 mmHg 75%
    22:00 +7°C° 0 mm 3 mps 757 mmHg 76%
    23:00 +7°C° 0 mm 3 mps 757 mmHg 76%
    Show more